Newark, NJ

5:14 AM EST on February 09, 2016 (GMT -0500)
Newark International

Weather History for KEWR - February, 2012

Change the Weather History Date:

Tuesday, February 14, 2012

  Actual Average Record
Temperature  
Mean Temperature 41 °F 34 °F  
Max Temperature 47 °F 42 °F 65 °F (1946)
Min Temperature 35 °F 27 °F 0 °F (1979)
Degree Days  
Heating Degree Days 24 31  
Month to date heating degree days 364 445  
Since 1 July heating degree days 2572 3229  
Cooling Degree Days 0 0  
Month to date cooling degree days 0 0  
Year to date cooling degree days 0 0  
Moisture  
Dew Point 21 °F    
Average Humidity 51    
Maximum Humidity 79    
Minimum Humidity 23    
Precipitation  
Precipitation 0.01 in 0.10 in 1.19 in (1935)
Month to date precipitation 0.12 1.40  
Year to date precipitation 3.01 4.94  
Snow  
Snow 0.00 in 0.30 in 3.50 in (1978)
Month to date snowfall 0.3 4.7  
Since 1 July snowfall 8.8 18.4  
Snow Depth 0.00 in    
Sea Level Pressure  
Sea Level Pressure 30.07 in    
Wind  
Wind Speed 4 mph (South)    
Max Wind Speed 20 mph    
Max Gust Speed 25 mph    
Visibility 10 miles    
Events Rain    
T = Trace of Precipitation, MM = Missing Value Source: NWS Daily Summary

Daily Weather History Graph

Daily Weather History Graph

Search for Another Location

Airport or City:

Trip Planner

Search our weather history database for the weather conditions in past years. The results will help you decide how hot, cold, wet, or windy it might be!

Date:

Astronomy

Feb. 14, 2012 Rise Set
Actual Time 6:52 AM EST 5:29 PM EST
Civil Twilight 6:24 AM EST 5:57 PM EST
Nautical Twilight 5:52 AM EST 6:30 PM EST
Astronomical Twilight 5:20 AM EST 7:01 PM EST
Moon 12:35 AM EST (2/14) 10:32 AM EST (2/14)
Length of Visible Light 11h 33m
Length of Day
10h 37m
Waning Gibbous, 50% of the Moon is Illuminated
Feb 14
Waning Gibbous
Feb 14
Last Quarter
Feb 21
New
Feb 29
First Quarter
Mar 8
Full

Hourly Weather History & Observations

Time (EST) Temp. Windchill Dew Point Humidity Pressure Visibility Wind Dir Wind Speed Gust Speed Precip Events Conditions
12:51 AM 35.1 °F 32.2 °F 17.1 °F 48% 30.06 in 10.0 mi SW 3.5 mph - N/A   Mostly Cloudy
1:51 AM 36.0 °F 33.3 °F 16.0 °F 44% 30.07 in 10.0 mi West 3.5 mph - N/A   Overcast
2:51 AM 37.0 °F 31.0 °F 12.0 °F 36% 30.07 in 10.0 mi West 8.1 mph - N/A   Overcast
3:51 AM 37.0 °F - 12.0 °F 36% 30.07 in 10.0 mi Calm Calm - N/A   Overcast
4:51 AM 37.9 °F 35.5 °F 10.9 °F 33% 30.07 in 10.0 mi WSW 3.5 mph - N/A   Overcast
5:51 AM 35.1 °F 32.2 °F 15.1 °F 44% 30.08 in 10.0 mi SW 3.5 mph - N/A   Overcast
6:51 AM 36.0 °F - 14.0 °F 41% 30.09 in 10.0 mi Calm Calm - N/A   Overcast
7:51 AM 36.0 °F 32.1 °F 17.1 °F 46% 30.11 in 10.0 mi SSW 4.6 mph - N/A   Mostly Cloudy
8:51 AM 37.9 °F - 15.1 °F 39% 30.12 in 10.0 mi Calm Calm - N/A   Overcast
9:51 AM 39.9 °F 37.8 °F 12.0 °F 32% 30.12 in 10.0 mi SW 3.5 mph - N/A   Overcast
10:51 AM 41.0 °F - 12.0 °F 31% 30.11 in 10.0 mi Calm Calm - N/A   Overcast
11:51 AM 42.1 °F 40.2 °F 12.9 °F 31% 30.09 in 10.0 mi ESE 3.5 mph - N/A   Overcast
12:51 PM 43.0 °F - 12.0 °F 28% 30.06 in 10.0 mi Calm Calm - N/A   Mostly Cloudy
1:51 PM 46.0 °F 44.8 °F 10.9 °F 24% 30.04 in 10.0 mi ESE 3.5 mph - N/A   Mostly Cloudy
2:51 PM 46.0 °F - 12.9 °F 26% 30.02 in 10.0 mi Calm Calm - N/A   Mostly Cloudy
3:51 PM 45.0 °F 40.6 °F 14.0 °F 29% 30.02 in 10.0 mi ESE 8.1 mph - N/A   Mostly Cloudy
4:51 PM 44.1 °F 38.6 °F 27.0 °F 51% 30.01 in 10.0 mi ESE 10.4 mph - N/A   Mostly Cloudy
5:51 PM 44.1 °F 40.8 °F 30.0 °F 58% 30.02 in 10.0 mi SE 5.8 mph - N/A   Mostly Cloudy
6:51 PM 44.1 °F 42.5 °F 34.0 °F 68% 30.03 in 10.0 mi ESE 3.5 mph - N/A   Mostly Cloudy
7:51 PM 44.1 °F - 35.1 °F 71% 30.04 in 10.0 mi Calm Calm - N/A   Mostly Cloudy
8:51 PM 44.1 °F 36.8 °F 32.0 °F 63% 30.06 in 10.0 mi SSW 16.1 mph 21.9 mph 0.00 in Rain Light Rain
9:22 PM 42.8 °F 37.5 °F 35.6 °F 76% 30.08 in 10.0 mi South 9.2 mph - 0.01 in Rain Light Rain
9:51 PM 42.1 °F 37.7 °F 35.1 °F 76% 30.08 in 10.0 mi South 6.9 mph - 0.01 in   Overcast
10:51 PM 41.0 °F 39.0 °F 35.1 °F 79% 30.07 in 10.0 mi South 3.5 mph - N/A   Overcast
11:51 PM 41.0 °F - 35.1 °F 79% 30.07 in 10.0 mi Calm Calm - N/A   Overcast